This is the latest recevied weather packets stored in our database for station/object HB0PJ-13. If no packets are shown the sender has not sent any weather packets the latest 10 day(s).
| Time | Temp. | Humidity | Pressure | Rain* | Wind** | Luminosity | Snow |
|---|---|---|---|---|---|---|---|
| 1777904583 | 23.89° C | 22% | 955.2 hPa | - | - | 40 W/m² | - |
| 1777904463 | 23.89° C | 22% | 955.3 hPa | - | - | 37 W/m² | - |
| 1777904343 | 23.33° C | 22% | 955.2 hPa | - | - | 34 W/m² | - |
| 1777904223 | 23.33° C | 22% | 955.1 hPa | - | - | 36 W/m² | - |
| 1777904103 | 23.33° C | 22% | 955.1 hPa | - | - | 33 W/m² | - |
| 1777903863 | 23.33° C | 22% | 955.2 hPa | - | - | 35 W/m² | - |
| 1777903743 | 23.33° C | 22% | 955.1 hPa | - | - | 33 W/m² | - |
| 1777903623 | 23.33° C | 22% | 955.1 hPa | - | - | 31 W/m² | - |
| 1777903503 | 23.33° C | 22% | 955.2 hPa | - | - | 31 W/m² | - |
| 1777903383 | 23.33° C | 22% | 955.2 hPa | - | - | 33 W/m² | - |
| 1777903263 | 23.33° C | 22% | 955.1 hPa | - | - | 32 W/m² | - |
| 1777903144 | 23.33° C | 22% | 955.1 hPa | - | - | 31 W/m² | - |
| 1777903023 | 23.33° C | 22% | 955.2 hPa | - | - | 32 W/m² | - |
| 1777902903 | 23.33° C | 22% | 955.1 hPa | - | - | 35 W/m² | - |
| 1777902783 | 23.33° C | 22% | 955.1 hPa | - | - | 32 W/m² | - |
| 1777902663 | 23.33° C | 22% | 955.2 hPa | - | - | 31 W/m² | - |
| 1777902543 | 23.33° C | 22% | 955.2 hPa | - | - | 31 W/m² | - |
| 1777902423 | 23.33° C | 21% | 955 hPa | - | - | 30 W/m² | - |
| 1777902303 | 23.33° C | 22% | 955.1 hPa | - | - | 31 W/m² | - |
| 1777902183 | 23.33° C | 22% | 955.2 hPa | - | - | 31 W/m² | - |
| 1777902063 | 23.33° C | 22% | 955.1 hPa | - | - | 30 W/m² | - |
| 1777901943 | 23.33° C | 21% | 955.1 hPa | - | - | 29 W/m² | - |
| 1777901823 | 23.33° C | 21% | 955.1 hPa | - | - | 29 W/m² | - |
| 1777901703 | 23.33° C | 22% | 955.1 hPa | - | - | 31 W/m² | - |
| 1777901583 | 23.33° C | 21% | 955.2 hPa | - | - | 35 W/m² | - |
* Rain since midnight (hover to see other rain measurements)
** Current wind speed in m/s (hover to see current wind gust speed)